GW1174 Weather Reports


Display with metric or nautical units.
time (UTC)temp
F
wind
direction
speed
MPH
gust
MPH
rain 1hr
in
rain 24hr
in
rain mn
in
humidity
%
barometer
mb
20260505160516 68 23 1.0 4.0 0.00 0.00 0.00 65 1004.1
20260505152515 69 23 2.0 9.0 0.00 0.00 0.00 61 1004.3
20260505151536 70 45 2.0 7.0 0.00 0.00 0.00 60 1004.5
20260505150516 71 23 1.0 8.0 0.00 0.00 0.00 60 1004.4
20260505140518 71 0 1.0 5.0 0.00 0.00 0.00 57 1005.0
20260505124517 74 0.0 1.0 0.00 0.00 0.00 47 1005.7
20260505123517 75 270 2.0 7.0 0.00 0.00 0.00 46 1005.7
20260505122517 76 293 2.0 5.0 0.00 0.00 0.00 45 1005.9
20260505121518 76 293 2.0 6.0 0.00 0.00 0.00 48 1006.1
20260505120558 75 293 1.0 4.0 0.00 0.00 0.00 46 1006.1
20260505115517 75 158 2.0 7.0 0.00 0.00 0.00 41 1006.2
20260505114517 77 158 2.0 7.0 0.00 0.00 0.00 41 1006.4
20260505113517 76 293 2.0 6.0 0.00 0.00 0.00 39 1006.5
20260505112517 74 270 1.0 2.0 0.00 0.00 0.00 43 1006.4
20260505111517 75 270 2.0 6.0 0.00 0.00 0.00 46 1006.5
20260505110517 73 293 1.0 4.0 0.00 0.00 0.00 48 1006.6
20260505101517 73 0.0 3.0 0.00 0.00 0.00 52 1007.0
20260505100537 73 315 2.0 6.0 0.00 0.00 0.00 52 1007.2
20260505095540 73 248 1.0 3.0 0.00 0.00 0.00 55 1007.2
20260505094517 72 293 1.0 3.0 0.00 0.00 0.00 57 1007.3
20260505093517 72 0.0 4.0 0.00 0.00 0.00 60 1007.4
20260505092517 72 45 1.0 3.0 0.00 0.00 0.00 60 1007.6
20260505091517 71 0.0 4.0 0.00 0.00 0.00 61 1007.6
20260505090517 71 0.0 3.0 0.00 0.00 0.00 60 1007.8
20260505085517 70 0 1.0 3.0 0.00 0.00 0.00 63 1007.9
20260505084517 69 0.0 1.0 0.00 0.00 0.00 64 1008.0
20260505083517 68 45 1.0 3.0 0.00 0.00 0.00 66 1008.0
20260505082517 68 293 1.0 3.0 0.00 0.00 0.00 67 1008.0
20260505081557 67 0.0 2.0 0.00 0.00 0.00 69 1008.1
20260505080537 66 0.0 1.0 0.00 0.00 0.00 71 1008.2
20260505075537 65 0.0 1.0 0.00 0.00 0.00 73 1008.1
20260505074516 65 0.0 3.0 0.00 0.00 0.00 72 1008.2
20260505073516 65 0.0 1.0 0.00 0.00 0.00 72 1008.3
20260505072520 65 0.0 0.0 0.00 0.00 0.00 71 1008.3
20260505071557 65 0.0 1.0 0.00 0.00 0.00 71 1008.4
20260505070517 65 0.0 2.0 0.00 0.00 0.00 72 1008.4
20260505065516 64 0.0 2.0 0.00 0.00 0.00 75 1008.4
20260505064517 62 0.0 0.0 0.00 0.00 0.00 76 1008.4
20260505063517 62 0.0 2.0 0.00 0.00 0.00 76 1008.5
20260505062516 62 0.0 3.0 0.00 0.00 0.00 77 1008.7
20260505061516 61 0.0 1.0 0.00 0.00 0.00 79 1008.5
20260505060536 60 0.0 1.0 0.00 0.00 0.00 80 1008.5
20260505055517 59 0.0 2.0 0.00 0.00 0.00 81 1008.4
20260505054516 58 0.0 1.0 0.00 0.00 0.00 82 1008.7
20260505053556 57 0.0 4.0 0.00 0.00 0.00 83 1008.5
20260505052516 57 0.0 2.0 0.00 0.00 0.00 83 1008.6
20260505051516 56 0.0 1.0 0.00 0.00 0.00 84 1008.5
20260505050516 56 0.0 0.0 0.00 0.00 0.00 84 1008.5
20260505041516 56 0 1.0 5.0 0.00 0.00 0.00 83 1008.5
20260505040516 56 23 1.0 5.0 0.00 0.00 0.00 82 1008.5
20260505035516 56 0.0 1.0 0.00 0.00 0.00 81 1008.6
20260505034536 56 0.0 2.0 0.00 0.00 0.00 81 1008.7
20260505033516 57 0.0 1.0 0.00 0.00 0.00 81 1008.9
20260505032516 57 0 1.0 4.0 0.00 0.00 0.00 81 1008.9
20260505031516 56 23 2.0 5.0 0.00 0.00 0.00 82 1009.1
20260505030516 56 0.0 2.0 0.00 0.00 0.00 82 1009.0
20260505025516 56 0.0 2.0 0.00 0.00 0.00 82 1009.2
20260505024516 56 0.0 1.0 0.00 0.00 0.00 82 1009.4
20260505023516 56 0.0 2.0 0.00 0.00 0.00 81 1009.6
20260505022516 57 0.0 3.0 0.00 0.00 0.00 81 1009.7
20260505021516 57 0.0 0.0 0.00 0.00 0.00 80 1010.0
20260505020536 57 0.0 0.0 0.00 0.00 0.00 79 1009.9
20260505015536 58 293 3.0 8.0 0.00 0.00 0.00 79 1010.0
20260505014516 58 0.0 2.0 0.00 0.00 0.00 80 1009.9
20260505013516 58 23 1.0 3.0 0.00 0.00 0.00 79 1009.7
20260505012516 58 0.0 0.0 0.00 0.00 0.00 79 1009.8
20260505011516 58 0.0 2.0 0.00 0.00 0.00 78 1009.9
20260505010516 58 0.0 0.0 0.00 0.00 0.00 78 1010.1
20260505005536 58 0.0 0.0 0.00 0.00 0.00 78 1010.1
20260505004516 59 0.0 0.0 0.00 0.00 0.00 77 1010.5
20260505003516 59 0.0 4.0 0.00 0.00 0.00 76 1010.4
20260505002516 59 0.0 1.0 0.00 0.00 0.00 76 1010.6
20260505001516 59 0.0 0.0 0.00 0.00 0.00 75 1010.5
20260505000516 59 0.0 0.0 0.00 0.00 0.00 75 1010.7
20260504235515 59 0.0 0.0 0.00 0.00 0.00 74 1010.7
20260504234515 58 0.0 0.0 0.00 0.00 0.00 74 1010.8
20260504233516 58 0.0 0.0 0.00 0.00 0.00 74 1010.8
20260504232537 58 0.0 0.0 0.00 0.00 0.00 74 1010.8
20260504231536 58 0.0 0.0 0.00 0.00 0.00 74 1010.8
20260504230537 58 0.0 1.0 0.00 0.00 0.00 74 1010.9
20260504225518 58 0.0 0.0 0.00 0.00 0.00 74 1010.8
20260504224518 58 0.0 0.0 0.00 0.00 0.00 74 1011.0
20260504223537 58 0.0 1.0 0.00 0.00 0.00 74 1011.0
20260504222518 58 0.0 1.0 0.00 0.00 0.00 74 1010.9
20260504221517 59 0.0 0.0 0.00 0.00 0.00 73 1011.1
20260504220538 59 0.0 1.0 0.00 0.00 0.00 73 1011.0
20260504215516 59 0.0 2.0 0.00 0.00 0.00 72 1011.1
20260504214516 59 0.0 2.0 0.00 0.00 0.00 72 1011.2
20260504213516 59 0.0 0.0 0.00 0.00 0.00 72 1011.2
20260504212516 60 0.0 1.0 0.00 0.00 0.00 70 1011.3
20260504211557 60 0.0 1.0 0.00 0.00 0.00 70 1011.2
20260504210516 61 0.0 0.0 0.00 0.00 0.00 69 1011.4
20260504205516 61 0.0 0.0 0.00 0.00 0.00 68 1011.4
20260504204516 61 0.0 0.0 0.00 0.00 0.00 67 1011.5
20260504203516 61 0.0 0.0 0.00 0.00 0.00 67 1011.4
20260504202516 61 0.0 2.0 0.00 0.00 0.00 66 1011.5
20260504201516 62 0.0 0.0 0.00 0.00 0.00 66 1011.4
20260504200536 62 0.0 1.0 0.00 0.00 0.00 66 1011.4
20260504195517 62 0.0 1.0 0.00 0.00 0.00 65 1011.5
20260504194559 62 0.0 0.0 0.00 0.00 0.00 64 1011.5
20260504193516 63 0.0 0.0 0.00 0.00 0.00 64 1011.5
20260504192516 63 0.0 0.0 0.00 0.00 0.00 63 1011.6
20260504191516 64 0.0 0.0 0.00 0.00 0.00 62 1011.4
20260504190516 64 0.0 0.0 0.00 0.00 0.00 61 1011.5
20260504185516 64 0.0 0.0 0.00 0.00 0.00 61 1011.3
20260504184516 65 0.0 2.0 0.00 0.00 0.00 60 1011.3
20260504183519 65 0.0 0.0 0.00 0.00 0.00 59 1011.2
20260504182516 66 0.0 0.0 0.00 0.00 0.00 58 1011.1
20260504181516 66 0.0 0.0 0.00 0.00 0.00 57 1011.2
20260504180536 67 0.0 2.0 0.00 0.00 0.00 57 1011.2
20260504175556 68 0.0 2.0 0.00 0.00 0.00 55 1011.2
20260504174536 68 293 1.0 2.0 0.00 0.00 0.00 53 1011.1
20260504173516 69 0.0 2.0 0.00 0.00 0.00 51 1011.1
20260504172516 70 293 1.0 4.0 0.00 0.00 0.00 52 1011.1
20260504171516 70 0.0 0.0 0.00 0.00 0.00 50 1011.0
20260504170516 70 0.0 1.0 0.00 0.00 0.00 46 1011.1